Regional Weather Roundup
Issued by NWS

Home | Current Version | Previous Version | Text Only | Print | Product List | Glossary Off
Versions: 1 2 3 4 5 6 7 8 9 10 11 12 13 14 15 16 17 18 19 20 21 22 23 24 25 26 27 28 29 30 31 32 33 34 35 36 37 38 39 40 41 42 43 44 45 46 47 48 49 50

000
ASUS43 KMKX 200821
RWRWI

WISCONSIN REGIONAL WEATHER ROUNDUP
NATIONAL WEATHER SERVICE MILWAUKEE/SULLIVAN WI
300 AM CDT MON OCT 20 2014

NOTE: "FAIR" INDICATES FEW OR NO CLOUDS BELOW 12,000 FEET WITH NO
SIGNIFICANT WEATHER AND/OR OBSTRUCTIONS TO VISIBILITY.

WIZ001-002-006>008-014>016-023>028-200900-
NORTHWEST WISCONSIN

CITY           SKY/WX    TMP DP  RH WIND       PRES   REMARKS
SUPERIOR ARPT  CLEAR     44  41  88 SW5       29.85R
ASHLAND        CLOUDY    48  42  80 NW3       29.83R
HAYWARD        CLEAR     39  36  89 CALM      29.84R
SIREN          CLEAR     42  40  89 W3        29.87S
CUMBERLAND     CLEAR     45  39  81 NW5       29.85R
RICE LAKE      CLEAR     47  40  76 NW3       29.86S
CHETEK         CLEAR     46  42  86 W3        29.84S
LADYSMITH      CLEAR     47  41  81 NW5       29.84R
EAU CLAIRE     CLEAR     50  41  71 NW9       29.84R
MENOMONIE      CLEAR     51  42  70 NW6       29.86R
NEW RICHMOND   CLEAR     46  40  80 NW7       29.88R
OSCEOLA        CLEAR     47  41  80 W3        29.91R
$$

WIZ003>005-009-010-017-018-200900-
NORTH CENTRAL WISCONSIN

CITY           SKY/WX    TMP DP  RH WIND       PRES   REMARKS
MANITOWISH WTR MOCLDY    44  42  94 NW5       29.79S
ARBOR VITAE    CLOUDY    47  43  88 N9        29.78S
WOODRUFF       CLOUDY    47  43  88 N9        29.78S
RHINELANDER    CLEAR     45  41  86 NW3       29.78R
EAGLE RIVER    PTCLDY    38  38 100 CALM      29.76R
LAND O LAKES   CLOUDY    42  42 100 NW3       29.77S
PHILLIPS       PTCLDY    42  40  93 NW3       29.80R
TOMAHAWK       CLEAR     40  39  97 CALM      29.79R
MEDFORD        CLEAR     43  40  91 N7        29.80R
MERRILL        CLEAR     32  32 100 CALM      29.78R
$$

WIZ029-030-035-036-043>047-200900-
CENTRAL WISCONSIN

CITY           SKY/WX    TMP DP  RH WIND       PRES   REMARKS
WAUSAU         CLEAR     42  41  96 NW7       29.76R
MOSINEE        MOCLDY    41  41 100 NW5       29.77S
MARSHFIELD     PTCLDY    47  43  86 N10       29.78R
STEVENS POINT  PTCLDY    35  34  99 CALM      29.78R
WAUPACA        CLEAR     41  40  96 CALM      29.77R FOG
WAUTOMA        PTCLDY    36  35  96 CALM      29.78S
WISC RAPIDS    CLEAR     39  38  96 CALM      29.79R FOG
CAMP DOUGLAS   CLEAR     47  47 100 W10       29.79R
$$

WIZ011>013-019>022-031-037>040-048>050-200900-
NORTHEAST WISCONSIN

CITY           SKY/WX    TMP DP  RH WIND       PRES   REMARKS
ANTIGO         FOG       35  35 100 CALM      29.76S VSB 1/2
SHAWANO        CLEAR     41  39  93 CALM      29.76R
OCONTO         CLEAR     39  39 100 CALM      29.74S
STURGEON BAY   PTCLDY    48  43  81 W7        29.75S
GREEN BAY      CLEAR     45  42  89 SW3       29.75F
MANITOWOC      PTCLDY    47  43  86 CALM      29.76F
APPLETON       CLEAR     41  39  93 S3        29.76S
CLINTONVILLE   FOG       37  37 100 CALM      29.76S VSB 3/4
OSHKOSH        CLEAR     47  42  83 VRB3      29.76S
$$

WIZ032>034-041-042-053>061-200900-
SOUTHWEST WISCONSIN

CITY           SKY/WX    TMP DP  RH WIND       PRES   REMARKS
LA CROSSE      CLEAR     49  43  80 N8        29.83R
SPARTA         PTCLDY    47  43  87 W7        29.82R
VIROQUA        CLEAR     47  43  85 NW7       29.82R
BOSCOBEL       CLEAR     47  43  86 SW5       29.82R
PRAIRIE DU CHI CLEAR     48  42  79 W6        29.83R
PLATTEVILLE    CLEAR     47  44  88 CALM      29.83S
$$

WIZ056-057-062-063-064-067-068-200900-
SOUTH CENTRAL WISCONSIN

CITY           SKY/WX    TMP DP  RH WIND       PRES   REMARKS
REEDSBURG      CLEAR     46  43  88 CALM      29.78R
BARABOO/DELLS  CLEAR     47  42  82 W5        29.78F
LONE ROCK      CLEAR     45  39  79 CALM      29.80R
MINERAL POINT  CLEAR     50  43  76 W7        29.81S
MADISON        CLEAR     51  43  74 CALM      29.78F
MIDDLETON      CLEAR     50  43  76 W5        29.79F
WATERTOWN      CLEAR     45  42  90 S3        29.78F
MONROE         CLEAR     48  43  81 SW14      29.79F
JANESVILLE     CLEAR     46  41  81 SW7       29.80F
$$

WIZ051-052-058>065-066-070>072-200900-
SOUTHEAST WISCONSIN

CITY           SKY/WX    TMP DP  RH WIND       PRES   REMARKS
MILWAUKEE      PTCLDY    50  42  74 SW8       29.80R
WAUKESHA       PTCLDY    46  41  81 SW3       29.81F
MILWAUKEE/TIMM PTCLDY    46  41  81 SW6       29.80S
RACINE         MOCLDY    52  42  69 W9G21     29.81F
BURLINGTON     PTCLDY    46  42  85 CALM      29.81S
KENOSHA        PTCLDY    50  43  77 SW13      29.81F
FOND DU LAC    CLEAR     47  41  80 SW9       29.77S
SHEBOYGAN      PTCLDY    47  41  80 W7        29.77S
WEST BEND      PTCLDY    50  41  71 SW6       29.78S
JUNEAU         CLEAR     44  41  89 S3        29.79F
$$

LSZ147-162-200900-
LAKE SUPERIOR

STATION/POSITION TIME  TEMP    WIND        PRES    WAVE
                       AIR SEA DIR/SP/G            HT/PER
                 (UTC) (F)     (DEG/KT/KT) (MB)    (FT/S)
W MID LAKE BUOY  0750   48 46  350/  4/  6 1009.0R   1
DEVILS ISLAND    0800   51     340/ 11/ 12 1010.1R
PORT WING        0700   52     270/  7/  9 1010.2S
SAXON HARBOR     0700   52     310/  6/ 10 1009.5R
$$

LMZ867-665-643>646-200900-
LAKE MICHIGAN

STATION/POSITION TIME  TEMP    WIND        PRES    WAVE
                       AIR SEA DIR/SP/G            HT/PER
                 (UTC) (F)     (DEG/KT/KT) (MB)    (FT/S)
CHAMBERS ISLAND  0700   51     210/  5/ 10 1007.1S
N MID LAKE BUOY  0750   52 52  240/ 14/ 16 1006.9R   6/ 7
NORTHPORT PIER   0700   52     250/  3/  9 1007.1S
KEWAUNEE LAKESHO 0800   47     300/  7/  8 1006.4F
SHEBOYGAN LAKESH 0800   52 51  260/ 10/ 12 1008.0F
PORT WASHINGTON  0700   53     260/  6/ 11 1009.1S
ATWATER BUOY     0800   53     230/ 16/ 19 1009.6F
MILWAUKEE LAKESH 0800   52     250/ 14/ 16   N/A
S MID LAKE BUOY  0750   55 55  220/ 19/ 25 1009.1F   4/ 6
KENOSHA   LAKESH 0800   53     240/ 13/ 19 1009.1F
$$

TC  - TEMPERATURE IN CELSIUS
VSB - VISIBILITY IN STATUTE MILES
WCI - WIND CHILL INDEX
HX  - HEAT INDEX



USA.gov is the U.S. government's official web portal to all federal, state and local government web resources and services.